FW7253 Weather Reports


time (UTC)temp
C
wind
direction
speed
KPH
gust
KPH
rain 1hr
cm
rain 24hr
cm
rain mn
cm
humidity
%
barometer
mb
20260505160535 10 224 16.1 24.1 0.00 0.00 0.00 42 1011.0
20260505153041 10 329 8.0 20.9 0.00 0.00 0.00 25 1010.8
20260505152533 10 347 9.7 20.9 0.00 0.00 0.00 24 1010.8
20260505152031 10 318 9.7 19.3 0.00 0.00 0.00 26 1010.9
20260505151540 10 319 11.3 19.3 0.00 0.00 0.00 25 1010.7
20260505151035 10 15 9.7 27.4 0.00 0.00 0.00 27 1010.8
20260505150533 10 273 8.0 27.4 0.00 0.00 0.00 26 1010.8
20260505140532 11 356 11.3 19.3 0.00 0.00 0.00 23 1010.9
20260505130107 10 70 4.8 24.1 0.00 0.00 0.00 24 1011.0
20260505125032 10 20 8.0 22.5 0.00 0.00 0.00 24 1011.2
20260505124551 10 244 9.7 22.5 0.00 0.00 0.00 22 1011.0
20260505124032 11 314 11.3 19.3 0.00 0.00 0.00 23 1011.1
20260505123534 11 310 9.7 30.6 0.00 0.00 0.00 25 1011.2
20260505123045 11 283 6.4 30.6 0.00 0.00 0.00 24 1011.0
20260505122532 10 243 11.3 30.6 0.00 0.00 0.00 23 1010.9
20260505122032 10 297 11.3 24.1 0.00 0.00 0.00 24 1011.0
20260505121551 10 344 12.9 20.9 0.00 0.00 0.00 22 1010.9
20260505121035 10 60 6.4 19.3 0.00 0.00 0.00 25 1010.9
20260505120535 11 243 8.0 19.3 0.00 0.00 0.00 22 1010.9
20260505120038 10 242 3.2 8.0 0.00 0.00 0.00 24 1011.0
20260505115534 10 150 1.6 22.5 0.00 0.00 0.00 25 1010.9
20260505115036 10 94 4.8 22.5 0.00 0.00 0.00 23 1010.9
20260505114547 10 340 12.9 22.5 0.00 0.00 0.00 23 1011.1
20260505114035 10 343 9.7 19.3 0.00 0.00 0.00 26 1010.9
20260505113535 10 334 6.4 17.7 0.00 0.00 0.00 23 1011.0
20260505113049 10 248 8.0 24.1 0.00 0.00 0.00 24 1011.1
20260505112538 10 253 14.5 24.1 0.00 0.00 0.00 24 1011.0
20260505112035 10 315 9.7 17.7 0.00 0.00 0.00 26 1011.2
20260505111541 10 298 8.0 17.7 0.00 0.00 0.00 26 1011.2
20260505111034 10 269 9.7 17.7 0.00 0.00 0.00 28 1011.1
20260505110535 10 283 6.4 19.3 0.00 0.00 0.00 34 1011.1
20260505102034 9 329 14.5 22.5 0.00 0.00 0.00 29 1011.4
20260505101547 9 155 8.0 19.3 0.00 0.00 0.00 30 1011.2
20260505101035 9 299 9.7 24.1 0.00 0.00 0.00 32 1011.3
20260505100535 8 332 14.5 24.1 0.00 0.00 0.00 31 1011.2
20260505100040 8 299 6.4 19.3 0.00 0.00 0.00 34 1011.2
20260505095534 8 297 9.7 20.9 0.00 0.00 0.00 31 1011.3
20260505095034 8 308 12.9 24.1 0.00 0.00 0.00 32 1011.3
20260505094540 8 334 16.1 24.1 0.00 0.00 0.00 32 1011.2
20260505094034 8 275 4.8 19.3 0.00 0.00 0.00 35 1011.2
20260505093534 8 296 9.7 16.1 0.00 0.00 0.00 33 1011.3
20260505093044 8 300 4.8 24.1 0.00 0.00 0.00 34 1011.3
20260505092534 8 30 12.9 24.1 0.00 0.00 0.00 31 1011.2
20260505092034 8 313 9.7 17.7 0.00 0.00 0.00 32 1011.3
20260505091541 8 319 9.7 20.9 0.00 0.00 0.00 38 1011.2
20260505091036 7 345 6.4 20.9 0.00 0.00 0.00 36 1011.2
20260505090534 7 21 12.9 20.9 0.00 0.00 0.00 37 1011.3
20260505090051 7 336 9.7 16.1 0.00 0.00 0.00 36 1011.1
20260505085535 8 359 6.4 14.5 0.00 0.00 0.00 39 1011.1
20260505085036 7 309 8.0 25.7 0.00 0.00 0.00 37 1011.1
20260505084548 7 354 4.8 25.7 0.00 0.00 0.00 40 1011.1
20260505084033 7 342 14.5 22.5 0.00 0.00 0.00 38 1011.2
20260505083535 6 325 11.3 22.5 0.00 0.00 0.00 38 1011.2
20260505083046 6 323 9.7 20.9 0.00 0.00 0.00 38 1011.2
20260505082535 7 20 4.8 17.7 0.00 0.00 0.00 38 1011.3
20260505082034 6 51 9.7 17.7 0.00 0.00 0.00 39 1011.2
20260505081551 6 283 6.4 24.1 0.00 0.00 0.00 39 1011.3
20260505081034 6 269 6.4 24.1 0.00 0.00 0.00 40 1011.3
20260505080538 6 326 12.9 22.5 0.00 0.00 0.00 39 1011.3
20260505080048 6 297 11.3 19.3 0.00 0.00 0.00 40 1011.2
20260505075535 6 346 9.7 19.3 0.00 0.00 0.00 39 1011.3
20260505075034 6 313 8.0 20.9 0.00 0.00 0.00 41 1011.2
20260505074541 6 295 12.9 20.9 0.00 0.00 0.00 40 1011.1
20260505074034 6 347 12.9 20.9 0.00 0.00 0.00 40 1011.2
20260505073535 6 329 11.3 20.9 0.00 0.00 0.00 41 1011.2
20260505073048 5 340 6.4 19.3 0.00 0.00 0.00 42 1011.2
20260505072534 5 295 8.0 19.3 0.00 0.00 0.00 43 1011.1
20260505072036 5 321 9.7 29.0 0.00 0.00 0.00 44 1011.0
20260505071552 5 290 11.3 30.6 0.00 0.00 0.00 44 1011.1
20260505071034 5 337 14.5 30.6 0.00 0.00 0.00 44 1011.0
20260505070536 5 349 9.7 30.6 0.00 0.00 0.00 45 1010.9
20260505070044 5 293 11.3 20.9 0.00 0.00 0.00 45 1010.9
20260505065534 4 342 14.5 20.9 0.00 0.00 0.00 45 1010.9
20260505065033 4 330 9.7 22.5 0.00 0.00 0.00 44 1010.8
20260505064542 4 323 9.7 22.5 0.00 0.00 0.00 45 1010.8
20260505064036 4 352 9.7 25.7 0.00 0.00 0.00 45 1010.9
20260505063534 4 4 11.3 25.7 0.00 0.00 0.00 45 1010.8
20260505063047 4 314 11.3 24.1 0.00 0.00 0.00 46 1011.0
20260505062534 4 339 8.0 20.9 0.00 0.00 0.00 46 1010.9
20260505062035 4 17 9.7 17.7 0.00 0.00 0.00 46 1010.8
20260505061548 4 342 9.7 20.9 0.00 0.00 0.00 47 1010.9
20260505061034 3 1 11.3 20.9 0.00 0.00 0.00 49 1010.9
20260505060536 3 312 6.4 20.9 0.00 0.00 0.00 50 1010.9
20260505060051 3 302 8.0 27.4 0.00 0.00 0.00 49 1010.8
20260505055538 3 309 12.9 27.4 0.00 0.00 0.00 48 1010.9
20260505055035 3 323 9.7 17.7 0.00 0.00 0.00 50 1010.9
20260505054555 3 328 6.4 27.4 0.00 0.00 0.00 50 1011.0
20260505054035 3 356 14.5 27.4 0.00 0.00 0.00 50 1010.9
20260505053534 3 349 9.7 25.7 0.00 0.00 0.00 50 1010.8
20260505053054 3 53 11.3 25.7 0.00 0.00 0.00 51 1010.7
20260505052534 3 1 11.3 22.5 0.00 0.00 0.00 52 1010.8
20260505052034 3 309 9.7 22.5 0.00 0.00 0.00 51 1010.7
20260505051549 3 329 3.2 12.9 0.00 0.00 0.00 53 1010.8
20260505051034 3 355 1.6 17.7 0.00 0.00 0.00 52 1010.7
20260505050536 2 356 6.4 17.7 0.00 0.00 0.00 53 1010.6
20260505041545 1 0 0.0 3.2 0.00 0.00 0.00 61 1010.5
20260505041034 0 0 0.0 3.2 0.00 0.00 0.00 62 1010.5
20260505040537 0 0 0.0 3.2 0.00 0.00 0.00 64 1010.5
20260505040044 0 0 0.0 0.0 0.00 0.00 0.00 67 1010.3
20260505035535 0 0 0.0 1.6 0.00 0.00 0.00 64 1010.4
20260505035035 0 0 0.0 1.6 0.00 0.00 0.00 63 1010.3
20260505034545 0 0 0.0 3.2 0.00 0.00 0.00 61 1010.3
20260505034034 1 0 0.0 3.2 0.00 0.00 0.00 61 1010.3
20260505033534 1 0 0.0 1.6 0.00 0.00 0.00 60 1010.2
20260505033044 0 101 0.0 8.0 0.00 0.00 0.00 60 1010.2
20260505032534 0 0 1.6 8.0 0.00 0.00 0.00 61 1010.3
20260505032033 0 355 1.6 3.2 0.00 0.00 0.00 62 1010.3
20260505031539 0 357 0.0 3.2 0.00 0.00 0.00 62 1010.3
20260505031033 0 0 0.0 3.2 0.00 0.00 0.00 63 1010.3
20260505030534 0 0 1.6 3.2 0.00 0.00 0.00 62 1010.2
20260505030047 0 0 0.0 1.6 0.00 0.00 0.00 63 1010.2
20260505025536 0 319 0.0 1.6 0.00 0.00 0.00 62 1010.3
20260505025034 0 0 0.0 1.6 0.00 0.00 0.00 62 1010.1
20260505024544 0 0 0.0 1.6 0.00 0.00 0.00 61 1010.2
20260505024034 0 330 0.0 1.6 0.00 0.00 0.00 61 1010.3
20260505023534 1 65 0.0 1.6 0.00 0.00 0.00 58 1010.2
20260505023045 1 0 0.0 0.0 0.00 0.00 0.00 57 1010.2
20260505022534 1 0 0.0 1.6 0.00 0.00 0.00 56 1010.1
20260505022036 1 0 0.0 3.2 0.00 0.00 0.00 55 1010.0
20260505021538 1 347 0.0 3.2 0.00 0.00 0.00 55 1010.2
20260505021033 1 352 0.0 3.2 0.00 0.00 0.00 55 1010.1
20260505020536 1 0 0.0 1.6 0.00 0.00 0.00 57 1010.1
20260505020045 1 0 0.0 6.4 0.00 0.00 0.00 56 1010.0
20260505015534 1 0 0.0 6.4 0.00 0.00 0.00 56 1009.9
20260505015035 1 0 1.6 6.4 0.00 0.00 0.00 56 1009.9
20260505014546 2 0 0.0 3.2 0.00 0.00 0.00 54 1009.9
20260505014034 2 0 0.0 3.2 0.00 0.00 0.00 54 1009.7
20260505013534 2 0 0.0 1.6 0.00 0.00 0.00 55 1009.7
20260505013044 2 65 0.0 4.8 0.00 0.00 0.00 54 1009.6
20260505012534 2 0 0.0 4.8 0.00 0.00 0.00 53 1009.6
20260505012036 2 90 0.0 4.8 0.00 0.00 0.00 53 1009.5
20260505011549 2 23 1.6 4.8 0.00 0.00 0.00 52 1009.4
20260505011034 2 83 0.0 4.8 0.00 0.00 0.00 52 1009.4
20260505010534 2 351 1.6 4.8 0.00 0.00 0.00 52 1009.4
20260505010042 2 86 0.0 4.8 0.00 0.00 0.00 53 1009.3
20260505005534 2 346 0.0 4.8 0.00 0.00 0.00 54 1009.4
20260505005034 2 336 0.0 8.0 0.00 0.00 0.00 53 1009.4
20260505004548 3 343 1.6 8.0 0.00 0.00 0.00 52 1009.4
20260505004035 3 89 0.0 11.3 0.00 0.00 0.00 52 1009.2
20260505003537 3 0 0.0 11.3 0.00 0.00 0.00 52 1009.3
20260505003047 3 0 1.6 11.3 0.00 0.00 0.00 51 1009.1
20260505002533 3 0 1.6 11.3 0.00 0.00 0.00 53 1009.2
20260505002033 3 101 1.6 11.3 0.00 0.00 0.00 52 1009.1
20260505001546 3 333 3.2 11.3 0.00 0.00 0.00 52 1009.1
20260505001033 3 30 1.6 6.4 0.00 0.00 0.00 53 1009.0
20260505000535 3 0 0.0 6.4 0.00 0.00 0.00 53 1009.0
20260505000047 3 0 0.0 9.7 0.00 0.00 0.00 53 1008.8
20260504235533 3 148 0.0 9.7 0.00 0.00 0.00 52 1008.8
20260504235034 3 5 1.6 8.0 0.00 0.00 0.00 52 1008.8
20260504234542 3 0 0.0 6.4 0.00 0.00 0.00 52 1008.7
20260504234036 3 136 0.0 6.4 0.00 0.00 0.00 51 1008.8
20260504233537 3 0 0.0 1.6 0.00 0.00 0.00 51 1008.7
20260504233050 3 0 0.0 6.4 0.00 0.00 0.00 51 1008.7
20260504232533 4 0 0.0 19.3 0.00 0.00 0.00 50 1008.6
20260504232033 5 0 3.2 22.5 0.00 0.00 0.00 48 1008.6
20260504231547 5 346 11.3 22.5 0.00 0.00 0.00 48 1008.4
20260504231033 5 349 9.7 20.9 0.00 0.00 0.00 49 1008.5
20260504230534 5 285 11.3 22.5 0.00 0.00 0.00 49 1008.5
20260504230047 5 342 11.3 24.1 0.00 0.00 0.00 49 1008.6
20260504225534 5 278 9.7 24.1 0.00 0.00 0.00 50 1008.6
20260504225036 5 316 12.9 20.9 0.00 0.00 0.00 50 1008.6
20260504224548 5 299 8.0 16.1 0.00 0.00 0.00 53 1008.7
20260504224036 5 308 6.4 19.3 0.00 0.00 0.00 53 1008.7
20260504223535 5 323 8.0 19.3 0.00 0.00 0.00 53 1008.6
20260504223045 5 269 6.4 19.3 0.00 0.00 0.00 53 1008.6
20260504222534 5 335 6.4 24.1 0.00 0.00 0.00 53 1008.4
20260504222033 5 347 12.9 24.1 0.00 0.00 0.00 53 1008.3
20260504221543 5 328 11.3 22.5 0.00 0.00 0.00 53 1008.2
20260504221034 6 321 11.3 24.1 0.00 0.00 0.00 53 1008.2
20260504220534 6 259 11.3 24.1 0.00 0.00 0.00 54 1008.2
20260504220051 6 207 8.0 17.7 0.00 0.00 0.00 54 1008.1
20260504215534 6 351 8.0 17.7 0.00 0.00 0.00 54 1008.1
20260504215034 6 312 8.0 17.7 0.00 0.00 0.00 54 1008.0
20260504214551 6 215 8.0 16.1 0.00 0.00 0.00 54 1008.0
20260504214033 6 355 9.7 19.3 0.00 0.00 0.00 54 1007.8
20260504213533 6 326 6.4 19.3 0.00 0.00 0.00 55 1007.8
20260504213053 6 319 11.3 19.3 0.00 0.00 0.00 55 1007.7
20260504212534 7 354 6.4 20.9 0.00 0.00 0.00 54 1007.6
20260504212033 7 340 8.0 20.9 0.00 0.00 0.00 54 1007.7
20260504211545 7 298 11.3 20.9 0.00 0.00 0.00 53 1007.5
20260504211034 7 325 9.7 17.7 0.00 0.00 0.00 55 1007.5
20260504210533 7 356 9.7 22.5 0.00 0.00 0.00 55 1007.4
20260504210044 7 351 8.0 22.5 0.00 0.00 0.00 55 1007.5
20260504205533 7 350 9.7 20.9 0.00 0.00 0.00 56 1007.3
20260504205033 8 313 4.8 14.5 0.00 0.00 0.00 60 1007.2
20260504204539 8 4 4.8 14.5 0.00 0.00 0.00 62 1007.1
20260504204034 8 314 4.8 12.9 0.00 0.00 0.00 62 1007.1
20260504203534 8 240 4.8 14.5 0.00 0.00 0.00 64 1007.0
20260504203041 8 274 3.2 14.5 0.00 0.00 0.00 64 1006.9
20260504202534 8 259 1.6 16.1 0.00 0.00 0.00 64 1006.9
20260504202035 8 220 6.4 19.3 0.00 0.00 0.00 63 1006.8
20260504201548 8 262 9.7 19.3 0.00 0.00 0.00 63 1006.7
20260504201033 8 243 11.3 17.7 0.00 0.00 0.00 62 1006.6
20260504200534 8 238 9.7 20.9 0.00 0.00 0.00 62 1006.6
20260504200043 8 229 11.3 24.1 0.00 0.00 0.00 61 1006.6
20260504195533 9 293 12.9 24.1 0.00 0.00 0.00 60 1006.5
20260504195033 9 245 12.9 25.7 0.00 0.00 0.00 60 1006.4
20260504194547 9 239 11.3 25.7 0.00 0.00 0.00 59 1006.5
20260504194034 9 243 12.9 22.5 0.00 0.00 0.00 58 1006.5
20260504193534 9 260 12.9 30.6 0.00 0.00 0.00 58 1006.5
20260504193042 10 252 16.1 30.6 0.00 0.00 0.00 57 1006.4
20260504192533 10 232 14.5 24.1 0.00 0.00 0.00 58 1006.2
20260504192033 10 224 11.3 20.9 0.00 0.00 0.00 59 1006.2
20260504191552 10 296 8.0 22.5 0.00 0.00 0.00 58 1006.2
20260504191035 10 299 11.3 29.0 0.00 0.00 0.00 58 1006.0
20260504190534 10 238 11.3 29.0 0.00 0.00 0.00 58 1005.9
20260504190049 10 9 16.1 32.2 0.00 0.00 0.00 57 1005.8
20260504185533 10 240 16.1 32.2 0.00 0.00 0.00 57 1005.6
20260504185033 10 279 17.7 32.2 0.00 0.00 0.00 56 1005.6
20260504184552 10 231 17.7 29.0 0.00 0.00 0.00 55 1005.6
20260504184034 11 198 11.3 35.4 0.00 0.00 0.00 55 1005.5
20260504183534 11 290 11.3 35.4 0.00 0.00 0.00 54 1005.7
20260504183047 11 305 12.9 32.2 0.00 0.00 0.00 52 1006.1
20260504182533 11 233 14.5 35.4 0.00 0.00 0.00 51 1005.8
20260504182035 11 226 17.7 35.4 0.00 0.00 0.00 50 1005.7
20260504181549 11 219 14.5 24.1 0.00 0.00 0.00 50 1005.4
20260504181033 11 251 11.3 29.0 0.00 0.00 0.00 49 1005.6
20260504180534 11 241 16.1 29.0 0.00 0.00 0.00 49 1005.4
20260504180045 11 240 14.5 20.9 0.00 0.00 0.00 49 1005.4
20260504175533 12 248 11.3 32.2 0.00 0.00 0.00 48 1005.3
20260504175035 12 295 12.9 48.3 0.00 0.00 0.00 47 1005.3
20260504174541 12 292 14.5 48.3 0.00 0.00 0.00 45 1005.2
20260504174034 12 284 24.1 46.7 0.00 0.00 0.00 45 1005.2
20260504173533 12 202 12.9 38.6 0.00 0.00 0.00 45 1005.1
20260504173040 12 282 19.3 38.6 0.00 0.00 0.00 45 1005.2
20260504172609 12 250 17.7 40.2 0.00 0.00 0.00 44 1005.3
20260504172033 12 250 22.5 40.2 0.00 0.00 0.00 44 1005.1
20260504171549 13 218 24.1 38.6 0.00 0.00 0.00 43 1005.1
20260504171034 13 217 17.7 32.2 0.00 0.00 0.00 43 1005.2
20260504170534 13 262 11.3 29.0 0.00 0.00 0.00 42 1005.1